Regional Weather Roundup
Issued by NWS New Orleans/Baton Rouge, LA

Home | Current Version | Previous Version | Text Only | Print | Product List | Glossary On
Versions: 1 2 3 4 5 6 7 8 9 10 11 12 13 14 15 16 17 18 19 20 21 22 23 24 25 26 27 28 29 30 31 32 33 34 35 36 37 38 39 40 41 42 43 44 45 46 47 48 49 50
281
ASUS44 KLIX 311107
RWRLIX
NEW ORLEANS REGIONAL WEATHER ROUNDUP
NATIONAL WEATHER SERVICE NEW ORLEANS LA
600 AM CDT TUE MAR 31 2015

NOTE: "FAIR" INDICATES FEW OR NO CLOUDS BELOW 12,000 FEET WITH NO
      SIGNIFICANT WEATHER AND/OR OBSTRUCTIONS TO VISIBILITY.
      SKY/WX - SKY CONDITION AND SIGNIFICANT WEATHER.
      TMP - AIR TEMPERATURE.     DP    - DEWPOINT TEMPERATURE.
      RH  - RELATIVE HUMIDITY.   PRES  - PRESSURE.
      HI  - HEAT INDEX.          WCI   - WIND CHILL INDEX.

*  THESE STATIONS ARE NOT NWS OR FAA STATIONS AND ARE NOT UNDER
   NWS QUALITY CONTROL.

LAZ038-040-048-061>063-065>067-069-311200-
SOUTHEAST LOUISIANA

CITY           SKY/WX    TMP DP  RH WIND       PRES   REMARKS
N.O. AUDUBON   NOT AVBL
N.O. INTL ARPT PTCLDY    63  60  90 CALM      30.10S
N.O. LAKEFRONT CLEAR     67  63  87 SW5       30.10S
SLIDELL        CLEAR     58  57  97 CALM      30.09S
BATON ROUGE    CLEAR     60  59  96 CALM      30.09R
BOOTHVILLE     CLEAR     68  65  90 S5        30.12R
BELLE CHASSE   FOG       59  58  96 CALM      30.10S VSB 1/4
BOGALUSA*        N/A     61  58  90 CALM      30.10S
GALLIANO*      FOG       55  54  99 CALM      30.11R VSB<1/4
NEW ROADS*       N/A     62  61  97 S6        30.09R
GONZALES*        N/A     58  58 100 CALM      30.09S FOG
HAMMOND*       CLEAR     59  57  94 CALM      30.11S
HOUMA*         FOG       58  58 100 CALM      30.10S VSB 1/2
PORT FOURCHON* MOSUNNY   70  66  88 CALM      30.14R

$$

MSZ070-080>082-311200-
SOUTHERN MISSISSIPPI

CITY           SKY/WX    TMP DP  RH WIND       PRES   REMARKS
MCCOMB         FOG       60  60 100 SW3       30.09R VSB 1/4
GULFPORT       CLEAR     62  60  93 W3        30.09S
BILOXI         CLEAR     65  63  94 W5        30.09S
PASCAGOULA     CLEAR     59  58  96 CALM      30.10R

$$

COASTAL OBSERVATIONS
LAKE AND NEARSHORE STATIONS

STATION/POSITION TIME  TEMP    WIND        PRES    WAVE
                       AIR SEA DIR/SP/G            HT/PER
                 (UTC) (F)     (DEG/KT/KT) (MB)    (FT/S)
PASCAGOULA       1000   68     250/  7/  9 1018.5
WAVELAND YACHT   1000   65 68  260/  5/  7 1018.9
GRAND ISLE       1000   68 70  190/  3/  4 1018.9
SOUTHWEST PASS   1000   65 54  180/  3/  4 1019.8
NEW CANAL        1000   65     220/  3/  4 1019.6
SHELL BEACH      1000   66 70  270/  2/  3 1019.3

OFFSHORE STATIONS

STATION/POSITION TIME  TEMP    WIND        PRES    WAVE
                       AIR SEA DIR/SP/G            HT/PER
                 (UTC) (F)     (DEG/KT/KT) (MB)    (FT/S)
64 S DAUPHIN ISL 1050   70 71  240/  6/  6 1020.0    2/ 7

$$




USA.gov is the U.S. government's official web portal to all federal, state and local government web resources and services.